Change the Weather History Date:

Tuesday, April 9, 2013

  Actual Average Record
Temperature  
Mean Temperature 66 °F -  
Max Temperature 82 °F 71 °F 86 °F (2011)
Min Temperature 51 °F 39 °F 24 °F (1998)
Cooling Degree Days 2    
Growing Degree Days 16 (Base 50)    
Moisture  
Dew Point 23 °F    
Average Humidity 22    
Maximum Humidity 35    
Minimum Humidity 10    
Precipitation  
Precipitation 0.00 in - - ()
Sea Level Pressure  
Sea Level Pressure 29.74 in    
Wind  
Wind Speed 14 mph (SSW)    
Max Wind Speed 33 mph    
Max Gust Speed 39 mph    
Visibility 10 miles    
Events      
Averages and records for this station are not official NWS values.
T = Trace of Precipitation, MM = Missing Value Source: NWS Daily Summary

Daily Weather History Graph

Daily Weather History Graph

Search for Another Location

Airport or City:

Trip Planner

Search our weather history database for the weather conditions in past years. The results will help you decide how hot, cold, wet, or windy it might be!

Date:

Astronomy

Apr. 09, 2013 Rise Set
Actual Time 7:35 AM CDT 8:20 PM CDT
Civil Twilight 7:10 AM CDT 8:44 PM CDT
Nautical Twilight 6:42 AM CDT 9:13 PM CDT
Astronomical Twilight 6:12 AM CDT 9:42 PM CDT
Moon 6:57 AM CDT (4/9) 7:57 PM CDT (4/9)
Length of Visible Light 13h 33m
Length of Day
12h 44m
Waning Crescent, 1% of the Moon is Illuminated
Apr 9
Waning Crescent
Apr 10
New
Apr 18
First Quarter
Apr 25
Full
May 2
Last Quarter

Hourly Weather History & Observations

Time (CDT) Temp. Dew Point Humidity Pressure Visibility Wind Dir Wind Speed Gust Speed Precip Events Conditions
12:15 AM 60.8 °F 17.6 °F 19% 29.71 in 10.0 mi South 6.9 mph - N/A   Clear
12:35 AM 60.8 °F 17.6 °F 19% 29.71 in 10.0 mi SSE 6.9 mph - N/A   Clear
12:55 AM 59.0 °F 17.6 °F 20% 29.71 in 10.0 mi South 6.9 mph - N/A   Clear
1:15 AM 55.4 °F 17.6 °F 23% 29.71 in 10.0 mi SSW 8.1 mph - N/A   Clear
1:35 AM 57.2 °F 19.4 °F 23% 29.71 in 10.0 mi South 10.4 mph - N/A   Clear
1:55 AM 59.0 °F 17.6 °F 20% 29.71 in 10.0 mi South 5.8 mph - N/A   Clear
2:15 AM 59.0 °F 19.4 °F 22% 29.70 in 10.0 mi South 13.8 mph - N/A   Clear
2:35 AM 60.8 °F 17.6 °F 19% 29.70 in 10.0 mi South 12.7 mph - N/A   Clear
2:55 AM 59.0 °F 17.6 °F 20% 29.70 in 10.0 mi South 13.8 mph - N/A   Clear
3:15 AM 57.2 °F 19.4 °F 23% 29.70 in 10.0 mi South 13.8 mph - N/A   Clear
3:35 AM 57.2 °F 19.4 °F 23% 29.69 in 10.0 mi South 11.5 mph - N/A   Clear
3:55 AM 60.8 °F 19.4 °F 20% 29.68 in 10.0 mi South 12.7 mph - N/A   Clear
4:15 AM 57.2 °F 19.4 °F 23% 29.69 in 10.0 mi South 12.7 mph - N/A   Clear
4:35 AM 57.2 °F 21.2 °F 25% 29.70 in 10.0 mi South 6.9 mph - N/A   Clear
4:55 AM 57.2 °F 21.2 °F 25% 29.70 in 10.0 mi South 9.2 mph - N/A   Clear
5:15 AM 57.2 °F 21.2 °F 25% 29.69 in 10.0 mi SE 12.7 mph - N/A   Clear
5:35 AM 57.2 °F 24.8 °F 29% 29.70 in 10.0 mi SSE 13.8 mph - N/A   Clear
5:55 AM 59.0 °F 26.6 °F 29% 29.69 in 10.0 mi SSE 13.8 mph - N/A   Clear
6:15 AM 59.0 °F 26.6 °F 29% 29.70 in 10.0 mi SSE 15.0 mph - N/A   Clear
6:35 AM 57.2 °F 28.4 °F 33% 29.71 in 10.0 mi South 11.5 mph 17.3 mph N/A   Clear
6:55 AM 57.2 °F 28.4 °F 33% 29.72 in 10.0 mi South 12.7 mph - N/A   Clear
7:15 AM 57.2 °F 28.4 °F 33% 29.72 in 10.0 mi South 11.5 mph - N/A   Clear
7:35 AM 57.2 °F 26.6 °F 31% 29.73 in 10.0 mi South 13.8 mph - N/A   Clear
7:55 AM 55.4 °F 26.6 °F 33% 29.73 in 10.0 mi South 9.2 mph - N/A   Clear
8:15 AM 57.2 °F 26.6 °F 31% 29.74 in 10.0 mi South 10.4 mph - N/A   Clear
8:35 AM 59.0 °F 26.6 °F 29% 29.75 in 10.0 mi SSE 10.4 mph - N/A   Clear
8:55 AM 62.6 °F 24.8 °F 24% 29.76 in 10.0 mi South 13.8 mph 18.4 mph N/A   Clear
9:15 AM 64.4 °F 24.8 °F 22% 29.77 in 10.0 mi South 15.0 mph - N/A   Clear
9:35 AM 64.4 °F 24.8 °F 22% 29.78 in 10.0 mi South 16.1 mph 24.2 mph N/A   Clear
9:55 AM 66.2 °F 24.8 °F 21% 29.78 in 10.0 mi South 19.6 mph 25.3 mph N/A   Clear
10:15 AM 68.0 °F 23.0 °F 18% 29.78 in 10.0 mi South 19.6 mph 27.6 mph N/A   Clear
10:35 AM 69.8 °F 23.0 °F 17% 29.78 in 10.0 mi South 20.7 mph 26.5 mph N/A   Clear
10:55 AM 69.8 °F 23.0 °F 17% 29.78 in 10.0 mi South 23.0 mph 28.8 mph N/A   Clear
11:15 AM 71.6 °F 23.0 °F 16% 29.78 in 10.0 mi South 19.6 mph 29.9 mph N/A   Clear
11:35 AM 71.6 °F 21.2 °F 15% 29.78 in 10.0 mi SSW 20.7 mph 29.9 mph N/A   Clear
11:55 AM 73.4 °F 21.2 °F 14% 29.78 in 10.0 mi South 24.2 mph 28.8 mph N/A   Clear
12:15 PM 73.4 °F 21.2 °F 14% 29.78 in 10.0 mi South 21.9 mph 29.9 mph N/A   Clear
12:35 PM 73.4 °F 21.2 °F 14% 29.77 in 10.0 mi SSW 23.0 mph 28.8 mph N/A   Clear
12:55 PM 75.2 °F 21.2 °F 13% 29.76 in 10.0 mi South 21.9 mph 28.8 mph N/A   Clear
1:15 PM 75.2 °F 21.2 °F 13% 29.75 in 10.0 mi South 21.9 mph 32.2 mph N/A   Clear
1:35 PM 77.0 °F 21.2 °F 12% 29.74 in 10.0 mi South 26.5 mph 33.4 mph N/A   Clear
1:55 PM 78.8 °F 21.2 °F 12% 29.73 in 10.0 mi South 25.3 mph 33.4 mph N/A   Clear
2:15 PM 78.8 °F 21.2 °F 12% 29.72 in 10.0 mi SSW 28.8 mph 34.5 mph N/A   Clear
2:35 PM 78.8 °F 21.2 °F 12% 29.71 in 10.0 mi South 28.8 mph 34.5 mph N/A   Clear
2:55 PM 78.8 °F 21.2 °F 12% 29.70 in 10.0 mi South 32.2 mph 36.8 mph N/A   Clear
3:15 PM 80.6 °F 21.2 °F 11% 29.69 in 10.0 mi South 28.8 mph 35.7 mph N/A   Clear
3:35 PM 80.6 °F 21.2 °F 11% 29.68 in 10.0 mi South 25.3 mph 39.1 mph N/A   Clear
3:55 PM 80.6 °F 21.2 °F 11% 29.66 in 10.0 mi South 28.8 mph 36.8 mph N/A   Clear
4:15 PM 82.4 °F 21.2 °F 10% 29.65 in 10.0 mi South 33.4 mph 39.1 mph N/A   Clear
4:35 PM 82.4 °F 21.2 °F 10% 29.64 in 10.0 mi South 20.7 mph 36.8 mph N/A   Clear
4:55 PM 80.6 °F 21.2 °F 11% 29.63 in 10.0 mi South 31.1 mph 38.0 mph N/A   Clear
5:15 PM 80.6 °F 21.2 °F 11% 29.64 in 10.0 mi WNW 24.2 mph 29.9 mph N/A   Scattered Clouds
5:35 PM 78.8 °F 21.2 °F 12% 29.65 in 10.0 mi WNW 23.0 mph 28.8 mph N/A   Overcast
5:55 PM 75.2 °F 24.8 °F 15% 29.67 in 10.0 mi West 18.4 mph 25.3 mph N/A   Overcast
6:15 PM 75.2 °F 24.8 °F 15% 29.68 in 10.0 mi West 21.9 mph - N/A   Overcast
6:35 PM 73.4 °F 24.8 °F 16% 29.70 in 10.0 mi West 21.9 mph 25.3 mph N/A   Overcast
6:55 PM 69.8 °F 26.6 °F 20% 29.71 in 10.0 mi WNW 18.4 mph 28.8 mph N/A   Overcast
7:15 PM 68.0 °F 26.6 °F 21% 29.73 in 10.0 mi WNW 20.7 mph 26.5 mph N/A   Overcast
7:35 PM 66.2 °F 28.4 °F 24% 29.74 in 10.0 mi West 23.0 mph - N/A   Overcast
7:55 PM 64.4 °F 28.4 °F 26% 29.76 in 10.0 mi West 13.8 mph - N/A   Overcast
8:15 PM 62.6 °F 28.4 °F 27% 29.78 in 10.0 mi NW 11.5 mph - N/A   Overcast
8:35 PM 62.6 °F 28.4 °F 27% 29.79 in 10.0 mi WNW 10.4 mph - N/A   Overcast
8:55 PM 60.8 °F 28.4 °F 29% 29.80 in 10.0 mi WNW 10.4 mph - N/A   Overcast
9:15 PM 59.0 °F 28.4 °F 31% 29.80 in 10.0 mi WNW 9.2 mph - N/A   Overcast
9:55 PM 55.4 °F 26.6 °F 33% 29.82 in 10.0 mi WNW 8.1 mph - N/A   Overcast
10:15 PM 55.4 °F 26.6 °F 33% 29.84 in 10.0 mi NW 9.2 mph - N/A   Overcast
10:35 PM 53.6 °F 26.6 °F 35% 29.85 in 10.0 mi North 8.1 mph - N/A   Overcast
10:55 PM 53.6 °F 26.6 °F 35% 29.86 in 10.0 mi North 3.5 mph - N/A   Overcast
11:15 PM 53.6 °F 26.6 °F 35% 29.87 in 10.0 mi NW 5.8 mph - N/A   Overcast
11:35 PM 51.8 °F 24.8 °F 35% 29.88 in 10.0 mi Calm Calm - N/A   Overcast
11:55 PM 51.8 °F 23.0 °F 33% 29.88 in 10.0 mi North 6.9 mph - N/A   Overcast